[[{"header":{"parameterUnit":"m.s-1","parameterCategory":1,"la1":30.2991,"la2":30.254,"lo1":-89.0895,"lo2":-89.0444,"dy":0.0017,"dx":0.0017,"nx":28,"ny":28,"refTime":"2025-08-02T21:00:00:Z","depth":0,"parameterNumber":2,"parameterNumberName":"U-component_of_WINDS"},"data":[0,0,0,0,0,0,0,0,0,0,0,0,0,0,0,0,0,0,0,0,0,0,0,0,0,0,0,0,0,0,0,0,0,0,0,0,0,0,0,0,0,0,0,0,0,0,0,0,0,0,0,0,0,0,0,0,0,0,-1.9368,-1.9367,0,-1.9213,-1.9212,-1.921,-1.9132,-1.9132,-1.9132,-1.9132,-1.8966,-1.8962,-1.8958,0,0,0,0,0,0,0,0,0,0,0,0,0,-1.9588,-1.9585,-1.9368,-1.9366,-1.9364,-1.9214,-1.9212,-1.9209,-1.9132,-1.9132,-1.9132,-1.9132,-1.8968,-1.8962,-1.8957,0,0,0,0,0,0,0,0,0,0,0,0,0,-1.9469,-1.9583,-1.9369,-1.9308,-1.9301,-1.9214,-1.9212,-1.9209,-1.9132,-1.9132,-1.9132,-1.9132,-1.8969,-1.8963,-1.8956,-1.8916,0,0,-1.8936,-1.8933,0,0,0,0,0,0,0,0,-1.9476,-1.9461,-1.9319,-1.9312,-1.9304,-1.9192,-1.9228,-1.911,-1.9132,-1.9196,-1.9132,-1.9132,-1.9041,-1.9028,-1.8999,-1.8908,-1.8901,-1.8936,-1.8932,-1.8929,-1.8927,0,0,0,0,0,0,0,-1.9484,-1.9467,-1.9307,-1.9317,-1.9308,-1.9285,-1.9268,-1.9206,-1.912,-1.919,-1.9184,-1.9168,-1.9037,-1.9006,-1.8995,-1.8899,-1.8936,-1.893,-1.8926,-1.8923,-1.8764,-1.8763,0,0,0,0,0,0,-1.9503,-1.9475,-1.9312,-1.9302,-1.9392,-1.9282,-1.9263,-1.9228,-1.9121,-1.9105,-1.9168,-1.9164,-1.9017,-1.9003,-1.8989,-1.8932,-1.8929,-1.8923,-1.8919,-1.8764,-1.8764,-1.8763,0,0,0,0,0,0,-1.9508,-1.949,-1.9318,-1.9387,-1.9363,-1.9278,-1.924,-1.9225,-1.9194,-1.9104,-1.9087,-1.9152,-1.9016,-1.8998,-1.8935,-1.8926,-1.892,-1.8914,-1.8764,-1.8764,-1.8764,-1.8821,0,0,0,0,0,0,-1.9515,-1.9492,-1.9478,-1.9387,-1.936,-1.9269,-1.9239,-1.9222,-1.9184,-1.9178,-1.9085,-1.9069,-1.9015,-1.8945,-1.8928,-1.8916,-1.8909,-1.8765,-1.8764,-1.8764,-1.882,-1.8823,-1.8826,0,0,0,0,0,-1.9523,-1.9499,-1.9478,-1.9458,-1.9341,-1.9269,-1.9253,-1.9193,-1.9183,-1.9167,-1.9108,-1.9072,-1.893,-1.8939,-1.8919,-1.8906,-1.8765,-1.8764,-1.8764,-1.8819,-1.8822,-1.8826,0,0,0,0,0,0,-1.9589,-1.9486,-1.9461,-1.9408,-1.9348,-1.9256,-1.9234,-1.92,-1.914,-1.9136,-1.9062,-1.9042,-1.8985,-1.8939,-1.8951,-1.8859,-1.8843,-1.8839,-1.8892,-1.8895,-1.8898,-1.8909,-1.8903,0,0,0,0,0,-1.9598,-1.9551,-1.9462,-1.9424,-1.9395,-1.932,-1.9286,-1.9246,-1.9179,-1.9153,-1.909,-1.9025,-1.8965,-1.8928,-1.8868,-1.8813,-1.879,-1.8793,-1.8796,-1.8799,-1.8796,-1.8761,-1.876,-1.8761,-1.8761,-1.8761,0,0,-1.9615,-1.9553,-1.9527,-1.9435,-1.9384,-1.9334,-1.9299,-1.9248,-1.9209,-1.9144,-1.9081,-1.9033,-1.8955,-1.8895,-1.8866,-1.8855,-1.879,-1.8798,-1.8802,-1.8796,-1.876,-1.876,-1.876,-1.8761,-1.8761,-1.8761,0,0,-1.962,-1.957,-1.9531,-1.948,-1.9404,-1.9354,-1.9345,-1.9257,-1.9223,-1.9159,-1.9109,-1.906,-1.8959,-1.8906,-1.8865,-1.8848,-1.8811,-1.883,-1.8845,-1.8812,-1.8812,-1.8811,-1.8803,-1.8801,-1.8827,-1.8827,-1.8827,0,-1.965,-1.9575,-1.9514,-1.9466,-1.9426,-1.9367,-1.9325,-1.9278,-1.9185,-1.9157,-1.9148,-1.9019,-1.8963,-1.8888,-1.8884,-1.8854,-1.8839,-1.884,-1.8817,-1.8816,-1.8814,-1.8806,-1.8803,-1.883,-1.883,-1.883,-1.8829,0,-1.9614,-1.9563,-1.954,-1.9454,-1.9411,-1.9367,-1.9296,-1.9259,-1.9222,-1.9172,-1.9105,-1.9036,-1.896,-1.8939,-1.8901,-1.8859,-1.8854,-1.8832,-1.8814,-1.8818,-1.8808,-1.8805,-1.8834,-1.8833,-1.8832,-1.8832,0,0,-1.9656,-1.9537,-1.953,-1.9489,-1.94,-1.9357,-1.9309,-1.9237,-1.9205,-1.9143,-1.9098,-1.9013,-1.8992,-1.8946,-1.8901,-1.8872,-1.886,-1.8852,-1.8849,-1.8854,-1.8805,-1.8822,-1.882,-1.8836,-1.8835,-1.8834,-1.8811,0,-1.9647,-1.956,-1.9503,-1.9437,-1.9387,-1.933,-1.9287,-1.9226,-1.9177,-1.9125,-1.907,-1.9011,-1.8988,-1.896,-1.8928,-1.8868,-1.8849,-1.8869,-1.879,-1.8788,-1.8811,-1.8815,-1.8833,-1.8815,-1.8807,-1.8807,-1.8806,0,-1.9626,-1.9567,-1.9496,-1.9411,-1.9388,-1.9351,-1.9279,-1.9231,-1.9159,-1.9125,-1.9074,-1.9029,-1.8971,-1.8959,-1.8877,-1.8892,-1.8856,-1.8822,-1.8819,-1.8809,-1.8797,-1.8803,-1.8808,-1.8805,-1.88,-1.8801,-1.8801,0,-1.9661,-1.9564,-1.9509,-1.9476,-1.9375,-1.935,-1.9307,-1.9235,-1.9195,-1.9131,-1.9103,-1.9033,-1.8994,-1.8939,-1.8875,-1.8873,-1.8799,-1.8782,-1.8767,-1.8768,-1.8753,-1.8754,-1.8751,-1.8732,-1.8732,-1.8733,-1.8733,0,-1.9656,-1.9615,-1.9523,-1.9489,-1.944,-1.9374,-1.9326,-1.9277,-1.9214,-1.9167,-1.9112,-1.9068,-1.8987,-1.8932,-1.8881,-1.882,-1.8803,-1.8772,-1.8758,-1.8776,-1.878,-1.875,-1.8749,-1.8732,-1.8732,-1.8732,-1.8732,0,-1.9688,-1.9625,-1.9561,-1.9471,-1.9448,-1.9415,-1.9337,-1.93,-1.9248,-1.9189,-1.9171,-1.909,-1.9022,-1.8953,-1.8862,-1.8827,-1.8767,-1.8749,-1.8792,-1.8784,-1.8772,-1.8774,-1.8749,-1.8741,-1.873,-1.873,-1.873,0,-1.9688,-1.9655,-1.9563,-1.9529,-1.9487,-1.9432,-1.9391,-1.9324,-1.9282,-1.9197,-1.917,-1.9099,-1.9039,-1.8934,-1.8864,-1.8793,-1.8772,-1.8768,-1.8761,-1.8779,-1.877,-1.8772,-1.8767,-1.8771,-1.8771,-1.8772,-1.8772,0,-1.9695,-1.9665,-1.961,-1.9543,-1.9496,-1.9439,-1.938,-1.9354,-1.9274,-1.923,-1.9162,-1.9115,-1.9022,-1.8952,-1.8872,-1.8824,-1.8783,-1.8775,-1.8767,-1.8784,-1.881,-1.8794,-1.8797,-1.8776,-1.8775,-1.8775,-1.8775,-1.8775,-1.9709,-1.9677,-1.9606,-1.9545,-1.9494,-1.944,-1.94,-1.9344,-1.9287,-1.9208,-1.9171,-1.9102,-1.9028,-1.8917,-1.887,-1.8813,-1.8801,-1.8791,-1.8788,-1.8786,-1.8789,-1.882,-1.8798,-1.8798,-1.8798,-1.8797,-1.8797,0,-1.9712,-1.9664,-1.9608,-1.9528,-1.9479,-1.9449,-1.9381,-1.9341,-1.9282,-1.9218,-1.916,-1.908,-1.9011,-1.8937,-1.8862,-1.8831,-1.881,-1.8813,-1.8814,-1.8803,-1.8805,-1.8818,-1.8831,-1.8831,-1.8831,-1.8831,-1.8831,-1.8831,-1.9707,-1.965,-1.9612,-1.9527,-1.9478,-1.9412,-1.9376,-1.9324,-1.9273,-1.9187,-1.913,-1.9083,-1.9013,-1.8933,-1.8867,-1.8846,-1.8821,-1.8829,-1.8803,-1.8806,-1.8803,-1.8801,-1.8813,-1.8824,-1.8824,-1.8805,-1.8805,-1.8805]},{"header":{"parameterUnit":"m.s-1","parameterCategory":1,"la1":30.2991,"la2":30.254,"lo1":-89.0895,"lo2":-89.0444,"dy":0.0017,"dx":0.0017,"nx":28,"ny":28,"refTime":"2025-08-02T21:00:00:Z","depth":0,"parameterNumber":3,"parameterNumberName":"V-component_of_WINDS"},"data":[0,0,0,0,0,0,0,0,0,0,0,0,0,0,0,0,0,0,0,0,0,0,0,0,0,0,0,0,0,0,0,0,0,0,0,0,0,0,0,0,0,0,0,0,0,0,0,0,0,0,0,0,0,0,0,0,0,0,0.2167,0.2168,0,0.2257,0.2258,0.2259,0.2295,0.2295,0.2295,0.2295,0.2384,0.2386,0.2389,0,0,0,0,0,0,0,0,0,0,0,0,0,0.2024,0.2026,0.2167,0.2168,0.2169,0.2257,0.2258,0.226,0.2296,0.2295,0.2295,0.2295,0.2383,0.2386,0.2389,0,0,0,0,0,0,0,0,0,0,0,0,0,0.2097,0.2027,0.2167,0.2198,0.2202,0.2257,0.2259,0.226,0.2296,0.2295,0.2295,0.2295,0.2382,0.2386,0.2389,0.2419,0,0,0.2401,0.2403,0,0,0,0,0,0,0,0,0.2093,0.2102,0.2192,0.2196,0.22,0.2265,0.2241,0.2313,0.2296,0.226,0.2295,0.2294,0.2344,0.2351,0.2369,0.2424,0.2427,0.2401,0.2404,0.2405,0.2407,0,0,0,0,0,0,0,0.2088,0.2099,0.2203,0.2193,0.2198,0.2207,0.2217,0.2255,0.2302,0.2263,0.2266,0.2276,0.2346,0.2365,0.2371,0.2429,0.2401,0.2405,0.2407,0.2409,0.2514,0.2515,0,0,0,0,0,0,0.2078,0.2094,0.22,0.2205,0.2145,0.2209,0.2221,0.2244,0.2302,0.2311,0.2276,0.2277,0.2358,0.2366,0.2374,0.2414,0.2405,0.2409,0.2411,0.2514,0.2514,0.2515,0,0,0,0,0,0,0.2075,0.2087,0.2196,0.2151,0.2165,0.2212,0.2239,0.2246,0.2265,0.2312,0.2321,0.2287,0.2358,0.2369,0.2409,0.2418,0.2411,0.2414,0.2513,0.2514,0.2515,0.2493,0,0,0,0,0,0,0.207,0.2086,0.2098,0.2151,0.2168,0.223,0.2239,0.2248,0.2272,0.2274,0.2324,0.2332,0.2359,0.2403,0.2412,0.2423,0.2417,0.2513,0.2514,0.2514,0.2494,0.2493,0.2493,0,0,0,0,0,0.2065,0.2087,0.2098,0.2111,0.2184,0.223,0.224,0.2271,0.2273,0.2285,0.2316,0.2331,0.2415,0.2406,0.2418,0.2429,0.2512,0.2513,0.2514,0.2494,0.2493,0.2493,0,0,0,0,0,0,0.2033,0.2095,0.2108,0.2148,0.2184,0.2236,0.2253,0.227,0.2305,0.2305,0.2342,0.2353,0.2389,0.2413,0.2402,0.2462,0.2465,0.2468,0.2445,0.2445,0.2445,0.2438,0.242,0,0,0,0,0,0.2031,0.2064,0.2116,0.2146,0.2163,0.2205,0.2226,0.2248,0.2286,0.23,0.2334,0.2369,0.2404,0.2426,0.2461,0.2497,0.2509,0.2511,0.2511,0.2511,0.2513,0.2535,0.2537,0.2519,0.2519,0.2519,0,0,0.2026,0.2064,0.2082,0.214,0.2171,0.2204,0.2217,0.2251,0.2276,0.2305,0.2345,0.2371,0.2413,0.2452,0.2471,0.2473,0.2521,0.2512,0.2511,0.2514,0.2536,0.2538,0.2539,0.2519,0.2519,0.2519,0,0,0.2034,0.2066,0.2095,0.2126,0.2172,0.22,0.2207,0.2258,0.2277,0.2318,0.2341,0.237,0.2429,0.2458,0.2481,0.2502,0.2517,0.2512,0.2511,0.2532,0.2534,0.2535,0.2543,0.2545,0.2515,0.2515,0.2514,0,0.2022,0.2073,0.2108,0.2141,0.2166,0.2196,0.2226,0.2254,0.2308,0.2325,0.2327,0.2403,0.2433,0.2479,0.2485,0.2502,0.2511,0.2506,0.2531,0.2533,0.2535,0.2542,0.2545,0.2514,0.2514,0.2514,0.2514,0,0.2056,0.2092,0.211,0.2164,0.2191,0.2222,0.2261,0.2284,0.2303,0.2331,0.2373,0.241,0.2454,0.2466,0.2484,0.2515,0.2516,0.2524,0.2527,0.2535,0.2543,0.2546,0.2512,0.2513,0.2513,0.2513,0,0,0.2046,0.212,0.2126,0.2151,0.2205,0.2232,0.2265,0.2309,0.2328,0.2365,0.2393,0.2443,0.2452,0.2478,0.25,0.2518,0.2533,0.2525,0.2526,0.2525,0.257,0.2563,0.2566,0.2544,0.2545,0.2545,0.2567,0,0.2061,0.2122,0.2155,0.2202,0.2235,0.2265,0.2294,0.2329,0.2356,0.2388,0.2417,0.2452,0.2461,0.2477,0.2496,0.2527,0.2543,0.2526,0.257,0.2571,0.2558,0.2571,0.2563,0.2582,0.257,0.2571,0.2571,0,0.2087,0.2126,0.2176,0.2228,0.2243,0.2268,0.2311,0.2341,0.2383,0.2401,0.2431,0.2453,0.2488,0.2489,0.2538,0.2527,0.2547,0.2565,0.2566,0.2571,0.2571,0.2576,0.2588,0.2591,0.2576,0.2576,0.2575,0,0.2075,0.2139,0.2178,0.2198,0.2259,0.2276,0.2302,0.2344,0.2368,0.2406,0.2422,0.2463,0.2485,0.2515,0.2548,0.2546,0.2594,0.2598,0.261,0.2609,0.2618,0.2617,0.2634,0.2631,0.2631,0.2631,0.2631,0,0.2089,0.2119,0.2173,0.2197,0.2232,0.2269,0.2302,0.233,0.2367,0.2396,0.2424,0.2451,0.2492,0.2524,0.255,0.2587,0.2596,0.2612,0.2618,0.2609,0.2607,0.2623,0.2622,0.2632,0.2632,0.2631,0.2631,0,0.208,0.2118,0.2163,0.2217,0.2232,0.2255,0.2301,0.2325,0.2354,0.2391,0.2402,0.2447,0.2486,0.2522,0.2573,0.2591,0.2628,0.2636,0.2614,0.2618,0.2628,0.2626,0.2655,0.2661,0.2654,0.2654,0.2654,0,0.2087,0.2111,0.2168,0.2191,0.2217,0.2252,0.2278,0.2316,0.2341,0.2391,0.2409,0.2451,0.2486,0.2547,0.2584,0.2624,0.2633,0.264,0.2639,0.263,0.2633,0.2631,0.2634,0.2639,0.2639,0.2639,0.2639,0,0.2094,0.2112,0.2149,0.2192,0.2222,0.2258,0.2294,0.2311,0.2356,0.2383,0.2424,0.2452,0.2506,0.2546,0.2591,0.2617,0.2635,0.264,0.2645,0.2635,0.2622,0.263,0.2613,0.2638,0.2639,0.2639,0.2639,0.2639,0.2093,0.2117,0.2161,0.2201,0.2233,0.2267,0.2292,0.2325,0.2361,0.2408,0.2428,0.247,0.2512,0.2574,0.26,0.2632,0.2636,0.2643,0.2645,0.2646,0.2644,0.2617,0.264,0.2641,0.2641,0.2641,0.2641,0,0.2102,0.2133,0.217,0.2221,0.2252,0.2269,0.231,0.2335,0.2372,0.241,0.2445,0.2492,0.2532,0.2573,0.2615,0.2634,0.2643,0.2643,0.2642,0.2648,0.2638,0.263,0.2635,0.2635,0.2635,0.2635,0.2635,0.2635,0.2111,0.2151,0.2174,0.2231,0.2261,0.2303,0.2325,0.2357,0.2387,0.244,0.2474,0.25,0.2539,0.2585,0.2622,0.2633,0.2647,0.2645,0.2658,0.2648,0.2648,0.2648,0.2641,0.2648,0.2648,0.2665,0.2665,0.2665]}]]